364  
ASPQ40 PGUM 170410  
RWRPQ  
WEATHER ROUNDUP FOR THE MARIANAS AND MICRONESIA  
NATIONAL WEATHER SERVICE TIYAN GU  
200 PM CHST THU JAN 17 2019  
 
GUZ001>004-170500-  
MARIANA ISLANDS-  
 
CITY SKY/WX TMP DP RH WIND PRES REMARKS
 
GUAM AIRPORT PTSUNNY 86 77 74 E18G28 29.81F HX 97  
ANDERSEN AFB PTSUNNY 82 73 74 E15G23 29.82F  
ROTA AIRPORT PTSUNNY 82 72 69 E16 29.81  
TINIAN AP PTSUNNY N/A N/A N/A E16 29.81  
SAIPAN AP MOSUNNY 84 73 70 E21 29.82 HX 91  
 

 
 
PMZ161-170500-  
REPUBLIC OF PALAU-  
 
CITY SKY/WX TMP DP RH WIND PRES REMARKS
 
KOROR AP CLOUDY 79 75 89 NE13G26 29.76F  
KOROR WSO NOT AVBL  
 

 
 
PMZ171>174-170500-  
FEDERATED STATES OF MICRONESIA-  
 
CITY SKY/WX TMP DP RH WIND PRES REMARKS
 
YAP AIRPORT CLOUDY 86 77 74 NE14G24 29.74F HX 97  
CHUUK AP CLOUDY 86 82 89 NE9 29.69 HX 105  
POHNPEI AP NOT AVBL  
POHNPEI WSO LGT RAIN 84 79 84 E8 29.70 HX 96  
KOSRAE AP NOT AVBL  
 

 
 
PMZ181-170500-  
REPUBLIC OF THE MARSHALL ISLANDS-  
 
CITY SKY/WX TMP DP RH WIND PRES REMARKS
 
KWAJALEIN AP MOSUNNY 86 75 70 E22G28 29.73F HX 95  
MAJURO AP NOT AVBL  
MAJURO WSO PTSUNNY 84 75 74 E10 29.70 HX 92  
 

 
 
 
 
CLICK HERE TO GO TO PREVIOUS BULLETINS.

The Nexlab GU Page Main Text Page